| time (UTC) | temp F | wind direction | speed MPH | gust MPH | rain 1hr in | rain 24hr in | rain mn in | humidity % | barometer mb |
| 20260902220610 | 82 | 145 | 0.0 | 0.0 | 0.00 | 0.04 | 0.04 | 97 | 1012.6 |
| 20260902220104 | 82 | 104 | 0.0 | 0.0 | 0.00 | 0.04 | 0.04 | 97 | 1012.8 |
| 20260902215601 | 82 | 130 | 0.0 | 0.0 | 0.00 | 0.04 | 0.04 | 98 | 1012.7 |
| 20260902215055 | 81 | 149 | 0.0 | 0.0 | 0.00 | 0.04 | 0.04 | 98 | 1012.3 |
| 20260902214555 | 81 | 151 | 0.0 | 0.0 | 0.00 | 0.04 | 0.04 | 98 | 1011.9 |
| 20260902214055 | 81 | 210 | 0.0 | 0.0 | 0.00 | 0.04 | 0.04 | 97 | 1012.1 |
| 20260902213550 | 81 | 170 | 0.0 | 0.0 | 0.00 | 0.04 | 0.04 | 97 | 1012.4 |
| 20260902213049 | 81 | 208 | 0.0 | 0.0 | 0.00 | 0.04 | 0.04 | 97 | 1012.1 |
| 20260902212545 | 82 | 194 | 0.0 | 0.0 | 0.00 | 0.04 | 0.04 | 97 | 1012.1 |
| 20260902212041 | 82 | 297 | 0.0 | 0.0 | 0.12 | 0.04 | 0.04 | 96 | 1012.1 |
| 20260902211537 | 82 | 124 | 0.0 | 0.0 | 0.17 | 0.04 | 0.04 | 95 | 1012.3 |
| 20260902211032 | 83 | 159 | 0.0 | 0.0 | 0.12 | 0.03 | 0.03 | 94 | 1012.6 |
| 20260902210532 | 83 | 259 | 0.0 | 0.0 | 0.07 | 0.01 | 0.01 | 92 | 1012.7 |
| 20260902210026 | 85 | 166 | 0.0 | 0.0 | 0.07 | 0.01 | 0.01 | 91 | 1012.9 |
| 20260902205520 | 86 | 124 | 0.0 | 0.0 | 0.00 | 0.00 | 0.00 | 88 | 1012.6 |
| 20260902205016 | 88 | 159 | 0.0 | 0.0 | 0.00 | 0.00 | 0.00 | 83 | 1012.0 |
| 20260902204515 | 89 | 115 | 0.0 | 0.0 | 0.00 | 0.00 | 0.00 | 80 | 1011.9 |
| 20260902204010 | 92 | 158 | 0.0 | 0.0 | 0.00 | 0.00 | 0.00 | 76 | 1012.1 |
| 20260902203506 | 93 | 116 | 0.0 | 0.0 | 0.00 | 0.00 | 0.00 | 73 | 1012.1 |
| 20260902203005 | 93 | 315 | 0.0 | 1.0 | 0.00 | 0.00 | 0.00 | 73 | 1012.3 |
| 20260902202501 | 94 | 279 | 2.0 | 2.0 | 0.00 | 0.00 | 0.00 | 74 | 1012.0 |
| 20260902201957 | 93 | 228 | 0.0 | 0.0 | 0.00 | 0.00 | 0.00 | 74 | 1012.0 |
| 20260902201457 | 91 | 262 | 0.0 | 1.0 | 0.00 | 0.00 | 0.00 | 77 | 1012.0 |
| 20260902200952 | 87 | 289 | 0.0 | 0.0 | 0.00 | 0.00 | 0.00 | 84 | 1012.1 |
| 20260902200447 | 87 | 179 | 0.0 | 0.0 | 0.00 | 0.00 | 0.00 | 84 | 1012.3 |
| 20260902195942 | 88 | 192 | 0.0 | 0.0 | 0.00 | 0.00 | 0.00 | 82 | 1012.5 |
| 20260902195438 | 89 | 85 | 0.0 | 0.0 | 0.00 | 0.00 | 0.00 | 78 | 1012.5 |
| 20260902194932 | 90 | 157 | 0.0 | 0.0 | 0.00 | 0.00 | 0.00 | 75 | 1012.1 |
| 20260902194432 | 92 | 175 | 0.0 | 0.0 | 0.00 | 0.00 | 0.00 | 72 | 1012.4 |
| 20260902193927 | 95 | 215 | 4.0 | 7.0 | 0.00 | 0.00 | 0.00 | 69 | 1012.6 |
| 20260902193423 | 95 | 159 | 0.0 | 0.0 | 0.00 | 0.00 | 0.00 | 67 | 1012.6 |
| 20260902192921 | 95 | 106 | 0.0 | 0.0 | 0.00 | 0.00 | 0.00 | 69 | 1012.7 |
| 20260902192420 | 94 | 75 | 0.0 | 1.0 | 0.00 | 0.00 | 0.00 | 69 | 1012.8 |
| 20260902191919 | 94 | 66 | 0.0 | 0.0 | 0.00 | 0.00 | 0.00 | 70 | 1012.8 |
| 20260902191415 | 94 | 158 | 0.0 | 0.0 | 0.00 | 0.00 | 0.00 | 71 | 1013.1 |
| 20260902190910 | 93 | 183 | 0.0 | 0.0 | 0.00 | 0.00 | 0.00 | 70 | 1013.0 |
| 20260902190405 | 93 | 135 | 0.0 | 0.0 | 0.00 | 0.00 | 0.00 | 70 | 1013.0 |
| 20260902185901 | 93 | 216 | 0.0 | 0.0 | 0.00 | 0.00 | 0.00 | 70 | 1013.1 |
| 20260902185356 | 93 | 221 | 0.0 | 0.0 | 0.00 | 0.00 | 0.00 | 73 | 1013.3 |
| 20260902184851 | 93 | 223 | 0.0 | 0.0 | 0.00 | 0.00 | 0.00 | 73 | 1013.6 |
| 20260902184347 | 92 | 176 | 0.0 | 0.0 | 0.00 | 0.00 | 0.00 | 72 | 1013.5 |
| 20260902183842 | 90 | 36 | 0.0 | 0.0 | 0.00 | 0.00 | 0.00 | 77 | 1013.4 |
| 20260902183339 | 89 | 188 | 0.0 | 0.0 | 0.00 | 0.00 | 0.00 | 76 | 1013.7 |
| 20260902182834 | 90 | 140 | 0.0 | 0.0 | 0.00 | 0.00 | 0.00 | 77 | 1013.7 |
| 20260902182331 | 91 | 158 | 0.0 | 0.0 | 0.00 | 0.00 | 0.00 | 74 | 1013.6 |
| 20260902181827 | 92 | 160 | 0.0 | 0.0 | 0.00 | 0.00 | 0.00 | 72 | 1013.8 |
| 20260902181322 | 92 | 169 | 0.0 | 0.0 | 0.00 | 0.00 | 0.00 | 72 | 1014.0 |
| 20260902180821 | 92 | 168 | 0.0 | 0.0 | 0.00 | 0.00 | 0.00 | 72 | 1014.0 |
| 20260902180317 | 92 | 156 | 0.0 | 0.0 | 0.00 | 0.00 | 0.00 | 71 | 1013.9 |
| 20260902175812 | 92 | 190 | 0.0 | 0.0 | 0.00 | 0.00 | 0.00 | 72 | 1014.1 |
| 20260902175308 | 90 | 161 | 0.0 | 0.0 | 0.00 | 0.00 | 0.00 | 76 | 1013.9 |
| 20260902174803 | 91 | 164 | 0.0 | 0.0 | 0.00 | 0.00 | 0.00 | 74 | 1013.9 |
| 20260902174300 | 91 | 65 | 0.0 | 0.0 | 0.00 | 0.00 | 0.00 | 73 | 1014.1 |
| 20260902173755 | 91 | 201 | 0.0 | 0.0 | 0.00 | 0.00 | 0.00 | 74 | 1014.1 |
| 20260902173249 | 89 | 30 | 0.0 | 0.0 | 0.00 | 0.00 | 0.00 | 76 | 1014.2 |
| 20260902172744 | 89 | 154 | 0.0 | 0.0 | 0.00 | 0.00 | 0.00 | 79 | 1014.0 |
| 20260902172243 | 89 | 171 | 0.0 | 0.0 | 0.00 | 0.00 | 0.00 | 79 | 1014.4 |
| 20260902171738 | 90 | 153 | 0.0 | 0.0 | 0.00 | 0.00 | 0.00 | 77 | 1014.3 |
| 20260902171234 | 91 | 162 | 0.0 | 0.0 | 0.00 | 0.00 | 0.00 | 76 | 1014.6 |
| 20260902170730 | 92 | 327 | 0.0 | 0.0 | 0.00 | 0.00 | 0.00 | 72 | 1014.6 |
| 20260902170225 | 91 | 237 | 0.0 | 0.0 | 0.00 | 0.00 | 0.00 | 74 | 1014.7 |
| 20260902165720 | 91 | 184 | 0.0 | 0.0 | 0.00 | 0.00 | 0.00 | 74 | 1014.7 |
| 20260902165215 | 90 | 170 | 0.0 | 0.0 | 0.00 | 0.00 | 0.00 | 77 | 1014.7 |
| 20260902164714 | 90 | 173 | 0.0 | 0.0 | 0.00 | 0.00 | 0.00 | 76 | 1014.9 |
| 20260902164209 | 92 | 160 | 0.0 | 0.0 | 0.00 | 0.00 | 0.00 | 74 | 1014.9 |
| 20260902163704 | 91 | 159 | 0.0 | 0.0 | 0.00 | 0.00 | 0.00 | 73 | 1015.0 |
| 20260902163204 | 90 | 170 | 0.0 | 0.0 | 0.00 | 0.00 | 0.00 | 74 | 1015.0 |
| 20260902162702 | 89 | 163 | 0.0 | 0.0 | 0.00 | 0.00 | 0.00 | 76 | 1014.9 |
| 20260902162156 | 90 | 121 | 0.0 | 0.0 | 0.00 | 0.00 | 0.00 | 77 | 1014.9 |
| 20260902161652 | 90 | 168 | 0.0 | 0.0 | 0.00 | 0.00 | 0.00 | 77 | 1015.1 |
| 20260902161147 | 88 | 125 | 0.0 | 0.0 | 0.00 | 0.00 | 0.00 | 80 | 1015.1 |
| 20260902160644 | 88 | 146 | 0.0 | 0.0 | 0.00 | 0.00 | 0.00 | 79 | 1015.2 |
| 20260902160138 | 90 | 148 | 0.0 | 0.0 | 0.00 | 0.00 | 0.00 | 77 | 1015.3 |
| 20260902155637 | 91 | 105 | 0.0 | 0.0 | 0.00 | 0.00 | 0.00 | 78 | 1015.4 |
| 20260902155136 | 89 | 176 | 0.0 | 0.0 | 0.00 | 0.00 | 0.00 | 79 | 1015.4 |
| 20260902154631 | 87 | 164 | 0.0 | 0.0 | 0.00 | 0.00 | 0.00 | 83 | 1015.4 |
| 20260902154126 | 87 | 158 | 0.0 | 0.0 | 0.00 | 0.00 | 0.00 | 83 | 1015.6 |
| 20260902153625 | 86 | 195 | 0.0 | 0.0 | 0.00 | 0.00 | 0.00 | 86 | 1015.7 |
| 20260902153120 | 86 | 174 | 0.0 | 0.0 | 0.00 | 0.00 | 0.00 | 85 | 1015.6 |
| 20260902152616 | 87 | 173 | 0.0 | 0.0 | 0.00 | 0.00 | 0.00 | 83 | 1015.8 |
| 20260902152112 | 86 | 97 | 0.0 | 0.0 | 0.00 | 0.00 | 0.00 | 88 | 1015.7 |
| 20260902151608 | 86 | 129 | 0.0 | 0.0 | 0.00 | 0.00 | 0.00 | 87 | 1015.8 |
| 20260902151107 | 86 | 152 | 0.0 | 0.0 | 0.00 | 0.00 | 0.00 | 87 | 1015.8 |
| 20260902150602 | 86 | 114 | 0.0 | 0.0 | 0.00 | 0.00 | 0.00 | 86 | 1016.0 |
| 20260902150058 | 85 | 111 | 0.0 | 0.0 | 0.00 | 0.00 | 0.00 | 89 | 1015.8 |
| 20260902145558 | 85 | 166 | 0.0 | 0.0 | 0.00 | 0.00 | 0.00 | 89 | 1015.7 |
| 20260902145057 | 86 | 142 | 0.0 | 0.0 | 0.00 | 0.00 | 0.00 | 88 | 1015.8 |
| 20260902144554 | 85 | 156 | 0.0 | 0.0 | 0.00 | 0.00 | 0.00 | 88 | 1015.7 |
| 20260902144049 | 84 | 141 | 0.0 | 0.0 | 0.00 | 0.00 | 0.00 | 91 | 1015.6 |
| 20260902143544 | 84 | 174 | 0.0 | 0.0 | 0.00 | 0.00 | 0.00 | 92 | 1015.6 |
| 20260902143039 | 84 | 20 | 0.0 | 0.0 | 0.00 | 0.00 | 0.00 | 92 | 1015.9 |
| 20260902142535 | 83 | 166 | 0.0 | 0.0 | 0.00 | 0.00 | 0.00 | 93 | 1015.6 |
| 20260902142030 | 84 | 185 | 0.0 | 0.0 | 0.00 | 0.00 | 0.00 | 92 | 1015.7 |
| 20260902141530 | 84 | 144 | 0.0 | 0.0 | 0.00 | 0.00 | 0.00 | 93 | 1015.6 |
| 20260902141026 | 83 | 155 | 0.0 | 0.0 | 0.00 | 0.00 | 0.00 | 93 | 1015.6 |
| 20260902140526 | 83 | 153 | 0.0 | 0.0 | 0.00 | 0.00 | 0.00 | 94 | 1015.5 |
| 20260902140021 | 83 | 163 | 0.0 | 0.0 | 0.00 | 0.00 | 0.00 | 93 | 1015.7 |
| 20260902135515 | 83 | 9 | 0.0 | 0.0 | 0.00 | 0.00 | 0.00 | 94 | 1015.6 |
| 20260902135010 | 83 | 163 | 0.0 | 0.0 | 0.00 | 0.00 | 0.00 | 95 | 1015.8 |
| 20260902134505 | 82 | 160 | 0.0 | 0.0 | 0.00 | 0.00 | 0.00 | 97 | 1015.8 |
| 20260902134000 | 82 | 123 | 0.0 | 0.0 | 0.00 | 0.00 | 0.00 | 99 | 1015.6 |
| 20260902133455 | 81 | 117 | 0.0 | 0.0 | 0.00 | 0.00 | 0.00 | 99 | 1015.4 |
| 20260902132949 | 81 | 155 | 0.0 | 0.0 | 0.00 | 0.00 | 0.00 | 99 | 1015.5 |
| 20260902132444 | 80 | 152 | 0.0 | 0.0 | 0.00 | 0.00 | 0.00 | 99 | 1015.8 |
| 20260902131939 | 80 | 164 | 0.0 | 0.0 | 0.00 | 0.00 | 0.00 | 99 | 1015.7 |
| 20260902131436 | 80 | 242 | 0.0 | 0.0 | 0.00 | 0.00 | 0.00 | 99 | 1015.5 |
| 20260902130936 | 79 | 90 | 0.0 | 0.0 | 0.00 | 0.00 | 0.00 | 99 | 1015.7 |
| 20260902130432 | 79 | 168 | 0.0 | 0.0 | 0.00 | 0.00 | 0.00 | 99 | 1015.4 |
| 20260902125932 | 79 | 168 | 0.0 | 0.0 | 0.00 | 0.00 | 0.00 | 99 | 1015.6 |
| 20260902125428 | 78 | 155 | 0.0 | 0.0 | 0.00 | 0.00 | 0.00 | 99 | 1015.6 |
| 20260902124924 | 79 | 170 | 0.0 | 0.0 | 0.00 | 0.00 | 0.00 | 99 | 1015.4 |
| 20260902124419 | 78 | 168 | 0.0 | 0.0 | 0.00 | 0.00 | 0.00 | 99 | 1015.8 |
| 20260902123914 | 78 | 149 | 0.0 | 0.0 | 0.00 | 0.00 | 0.00 | 99 | 1015.7 |
| 20260902123411 | 78 | 161 | 0.0 | 0.0 | 0.00 | 0.00 | 0.00 | 99 | 1015.6 |
| 20260902122909 | 78 | 155 | 0.0 | 0.0 | 0.00 | 0.00 | 0.00 | 99 | 1015.6 |
| 20260902122405 | 78 | 155 | 0.0 | 0.0 | 0.00 | 0.00 | 0.00 | 99 | 1015.4 |
| 20260902121900 | 78 | 135 | 0.0 | 0.0 | 0.00 | 0.00 | 0.00 | 99 | 1015.4 |
| 20260902121355 | 78 | 156 | 0.0 | 0.0 | 0.00 | 0.00 | 0.00 | 99 | 1015.4 |
| 20260902120850 | 78 | 154 | 0.0 | 0.0 | 0.00 | 0.00 | 0.00 | 99 | 1015.3 |
| 20260902120347 | 77 | 155 | 0.0 | 0.0 | 0.00 | 0.00 | 0.00 | 99 | 1015.1 |
| 20260902115846 | 77 | 173 | 0.0 | 0.0 | 0.00 | 0.00 | 0.00 | 99 | 1015.2 |
| 20260902115343 | 77 | 162 | 0.0 | 0.0 | 0.00 | 0.00 | 0.00 | 99 | 1015.4 |
| 20260902114839 | 77 | 144 | 0.0 | 0.0 | 0.00 | 0.00 | 0.00 | 99 | 1015.3 |
| 20260902114334 | 77 | 118 | 0.0 | 0.0 | 0.00 | 0.00 | 0.00 | 99 | 1015.2 |
| 20260902113834 | 77 | 162 | 0.0 | 0.0 | 0.00 | 0.00 | 0.00 | 99 | 1015.3 |
| 20260902113330 | 77 | 176 | 0.0 | 0.0 | 0.00 | 0.00 | 0.00 | 99 | 1015.3 |
| 20260902112829 | 77 | 172 | 0.0 | 0.0 | 0.00 | 0.00 | 0.00 | 99 | 1014.8 |
| 20260902112326 | 77 | 177 | 0.0 | 0.0 | 0.00 | 0.00 | 0.00 | 99 | 1015.0 |
| 20260902111821 | 77 | 168 | 0.0 | 0.0 | 0.00 | 0.00 | 0.00 | 99 | 1014.9 |
| 20260902111317 | 77 | 177 | 0.0 | 0.0 | 0.00 | 0.00 | 0.00 | 99 | 1014.8 |
| 20260902110813 | 76 | 183 | 0.0 | 0.0 | 0.00 | 0.00 | 0.00 | 99 | 1014.9 |
| 20260902110309 | 76 | 176 | 0.0 | 0.0 | 0.00 | 0.00 | 0.00 | 99 | 1015.0 |
| 20260902105808 | 76 | 169 | 0.0 | 0.0 | 0.00 | 0.00 | 0.00 | 99 | 1014.8 |
| 20260902105306 | 76 | 176 | 0.0 | 0.0 | 0.00 | 0.00 | 0.00 | 99 | 1014.7 |
| 20260902104759 | 76 | 169 | 0.0 | 0.0 | 0.00 | 0.00 | 0.00 | 99 | 1014.6 |
| 20260902104255 | 76 | 176 | 0.0 | 0.0 | 0.00 | 0.00 | 0.00 | 99 | 1014.5 |
| 20260902103754 | 76 | 176 | 0.0 | 0.0 | 0.00 | 0.00 | 0.00 | 99 | 1014.6 |
| 20260902103248 | 76 | 174 | 0.0 | 0.0 | 0.00 | 0.00 | 0.00 | 99 | 1014.5 |
| 20260902102744 | 76 | 175 | 0.0 | 0.0 | 0.00 | 0.00 | 0.00 | 99 | 1014.6 |
| 20260902102242 | 76 | 176 | 0.0 | 0.0 | 0.00 | 0.00 | 0.00 | 99 | 1014.4 |
| 20260902101737 | 76 | 169 | 0.0 | 0.0 | 0.00 | 0.00 | 0.00 | 99 | 1014.4 |
| 20260902101232 | 76 | 172 | 0.0 | 0.0 | 0.00 | 0.00 | 0.00 | 99 | 1014.5 |
| 20260902100731 | 76 | 173 | 0.0 | 0.0 | 0.00 | 0.00 | 0.00 | 99 | 1014.7 |
| 20260902100225 | 76 | 175 | 0.0 | 0.0 | 0.00 | 0.00 | 0.00 | 99 | 1014.7 |
| 20260902095720 | 76 | 172 | 0.0 | 0.0 | 0.00 | 0.00 | 0.00 | 99 | 1014.6 |
| 20260902095214 | 76 | 168 | 0.0 | 0.0 | 0.00 | 0.00 | 0.00 | 99 | 1014.5 |
| 20260902094708 | 76 | 176 | 0.0 | 0.0 | 0.00 | 0.00 | 0.00 | 99 | 1014.7 |
| 20260902094206 | 76 | 176 | 0.0 | 0.0 | 0.00 | 0.00 | 0.00 | 99 | 1014.3 |
| 20260902093704 | 76 | 172 | 0.0 | 0.0 | 0.00 | 0.00 | 0.00 | 99 | 1014.4 |
| 20260902093200 | 76 | 172 | 0.0 | 0.0 | 0.00 | 0.00 | 0.00 | 99 | 1014.4 |
| 20260902092700 | 76 | 170 | 0.0 | 0.0 | 0.00 | 0.00 | 0.00 | 99 | 1014.3 |
| 20260902092155 | 76 | 170 | 0.0 | 0.0 | 0.00 | 0.00 | 0.00 | 99 | 1014.1 |
| 20260902091649 | 76 | 168 | 0.0 | 0.0 | 0.00 | 0.00 | 0.00 | 99 | 1014.4 |
| 20260902091146 | 76 | 176 | 0.0 | 0.0 | 0.00 | 0.00 | 0.00 | 99 | 1014.0 |
| 20260902090641 | 76 | 176 | 0.0 | 0.0 | 0.00 | 0.00 | 0.00 | 99 | 1013.9 |
| 20260902090140 | 76 | 162 | 0.0 | 0.0 | 0.00 | 0.00 | 0.00 | 99 | 1013.9 |
| 20260902085635 | 76 | 170 | 0.0 | 0.0 | 0.00 | 0.00 | 0.00 | 99 | 1013.9 |
| 20260902085130 | 76 | 172 | 0.0 | 0.0 | 0.00 | 0.00 | 0.00 | 99 | 1013.8 |
| 20260902084627 | 76 | 168 | 0.0 | 0.0 | 0.00 | 0.00 | 0.00 | 99 | 1013.9 |
| 20260902084122 | 77 | 161 | 0.0 | 0.0 | 0.00 | 0.00 | 0.00 | 99 | 1014.1 |
| 20260902083617 | 76 | 126 | 0.0 | 0.0 | 0.00 | 0.00 | 0.00 | 99 | 1014.0 |
| 20260902083116 | 76 | 172 | 0.0 | 0.0 | 0.00 | 0.00 | 0.00 | 99 | 1014.0 |
| 20260902082612 | 76 | 176 | 0.0 | 0.0 | 0.00 | 0.00 | 0.00 | 99 | 1014.1 |
| 20260902082109 | 76 | 176 | 0.0 | 0.0 | 0.00 | 0.00 | 0.00 | 99 | 1013.7 |
| 20260902081605 | 76 | 170 | 0.0 | 0.0 | 0.00 | 0.00 | 0.00 | 99 | 1014.1 |
| 20260902081105 | 76 | 176 | 0.0 | 0.0 | 0.00 | 0.00 | 0.00 | 99 | 1014.0 |
| 20260902080600 | 76 | 176 | 0.0 | 0.0 | 0.00 | 0.00 | 0.00 | 99 | 1013.9 |
| 20260902080056 | 76 | 172 | 0.0 | 0.0 | 0.00 | 0.00 | 0.00 | 99 | 1014.0 |
| 20260902075556 | 76 | 169 | 0.0 | 0.0 | 0.00 | 0.00 | 0.00 | 99 | 1014.1 |
| 20260902075052 | 76 | 176 | 0.0 | 0.0 | 0.00 | 0.00 | 0.00 | 99 | 1014.2 |
| 20260902074547 | 76 | 169 | 0.0 | 0.0 | 0.00 | 0.00 | 0.00 | 99 | 1014.1 |
| 20260902074043 | 76 | 172 | 0.0 | 0.0 | 0.00 | 0.00 | 0.00 | 99 | 1014.0 |
| 20260902073538 | 76 | 176 | 0.0 | 0.0 | 0.00 | 0.00 | 0.00 | 99 | 1014.1 |
| 20260902073034 | 76 | 176 | 0.0 | 0.0 | 0.00 | 0.00 | 0.00 | 99 | 1014.1 |
| 20260902072530 | 76 | 176 | 0.0 | 0.0 | 0.00 | 0.00 | 0.00 | 99 | 1014.1 |
| 20260902072027 | 76 | 169 | 0.0 | 0.0 | 0.00 | 0.00 | 0.00 | 99 | 1014.2 |
| 20260902071525 | 76 | 170 | 0.0 | 0.0 | 0.00 | 0.00 | 0.00 | 99 | 1014.3 |
| 20260902071022 | 76 | 170 | 0.0 | 0.0 | 0.00 | 0.00 | 0.00 | 99 | 1014.3 |
| 20260902070517 | 76 | 169 | 0.0 | 0.0 | 0.00 | 0.00 | 0.00 | 99 | 1014.2 |
| 20260902070017 | 77 | 169 | 0.0 | 0.0 | 0.00 | 0.00 | 0.00 | 99 | 1014.3 |
| 20260902065511 | 76 | 176 | 0.0 | 0.0 | 0.00 | 0.00 | 0.00 | 99 | 1014.2 |
| 20260902065006 | 76 | 169 | 0.0 | 0.0 | 0.00 | 0.00 | 0.00 | 99 | 1014.4 |
| 20260902064456 | 76 | 176 | 0.0 | 0.0 | 0.00 | 0.00 | 0.00 | 99 | 1014.4 |
| 20260902063952 | 76 | 176 | 0.0 | 0.0 | 0.00 | 0.00 | 0.00 | 99 | 1014.4 |
| 20260902063451 | 76 | 176 | 0.0 | 0.0 | 0.00 | 0.00 | 0.00 | 99 | 1014.4 |
| 20260902062947 | 76 | 172 | 0.0 | 0.0 | 0.00 | 0.00 | 0.00 | 99 | 1014.5 |
| 20260902062446 | 76 | 172 | 0.0 | 0.0 | 0.00 | 0.00 | 0.00 | 99 | 1014.5 |
| 20260902061941 | 76 | 169 | 0.0 | 0.0 | 0.00 | 0.00 | 0.00 | 99 | 1014.7 |
| 20260902061436 | 77 | 169 | 0.0 | 0.0 | 0.00 | 0.00 | 0.00 | 99 | 1014.7 |
| 20260902060932 | 76 | 169 | 0.0 | 0.0 | 0.00 | 0.00 | 0.00 | 99 | 1014.6 |
| 20260902060428 | 76 | 172 | 0.0 | 0.0 | 0.00 | 0.00 | 0.00 | 99 | 1014.6 |
| 20260902055924 | 76 | 176 | 0.0 | 0.0 | 0.00 | 0.00 | 0.00 | 99 | 1014.6 |
| 20260902055420 | 76 | 172 | 0.0 | 0.0 | 0.00 | 0.00 | 0.00 | 99 | 1014.6 |
| 20260902054915 | 76 | 165 | 0.0 | 0.0 | 0.00 | 0.00 | 0.00 | 99 | 1014.7 |
| 20260902054410 | 76 | 169 | 0.0 | 0.0 | 0.00 | 0.00 | 0.00 | 99 | 1014.6 |
| 20260902053905 | 76 | 172 | 0.0 | 0.0 | 0.00 | 0.00 | 0.00 | 99 | 1014.7 |
| 20260902053401 | 76 | 169 | 0.0 | 0.0 | 0.00 | 0.00 | 0.00 | 99 | 1014.8 |
| 20260902052859 | 76 | 169 | 0.0 | 0.0 | 0.00 | 0.00 | 0.00 | 99 | 1014.9 |
| 20260902052354 | 76 | 169 | 0.0 | 0.0 | 0.00 | 0.00 | 0.00 | 99 | 1014.8 |
| 20260902051849 | 76 | 169 | 0.0 | 0.0 | 0.00 | 0.00 | 0.00 | 99 | 1015.0 |
| 20260902051344 | 77 | 165 | 0.0 | 0.0 | 0.00 | 0.00 | 0.00 | 99 | 1014.8 |
| 20260902050844 | 77 | 161 | 0.0 | 0.0 | 0.00 | 0.00 | 0.00 | 99 | 1015.0 |
| 20260902050342 | 77 | 165 | 0.0 | 0.0 | 0.00 | 0.00 | 0.00 | 99 | 1014.9 |
| 20260902045838 | 76 | 169 | 0.0 | 0.0 | 0.00 | 0.00 | 0.00 | 99 | 1014.8 |
| 20260902045334 | 76 | 169 | 0.0 | 0.0 | 0.00 | 0.00 | 0.00 | 99 | 1014.8 |
| 20260902044831 | 77 | 169 | 0.0 | 0.0 | 0.00 | 0.00 | 0.00 | 99 | 1014.8 |
| 20260902044326 | 77 | 169 | 0.0 | 0.0 | 0.00 | 0.00 | 0.00 | 99 | 1014.9 |
| 20260902043827 | 77 | 162 | 0.0 | 0.0 | 0.00 | 0.00 | 0.00 | 99 | 1014.9 |
| 20260902043321 | 77 | 162 | 0.0 | 0.0 | 0.00 | 0.00 | 0.00 | 99 | 1014.9 |
| 20260902042820 | 77 | 161 | 0.0 | 0.0 | 0.00 | 0.00 | 0.00 | 99 | 1014.9 |
| 20260902042315 | 77 | 165 | 0.0 | 0.0 | 0.00 | 0.00 | 0.00 | 99 | 1015.0 |
| 20260902041811 | 77 | 162 | 0.0 | 0.0 | 0.00 | 0.00 | 0.00 | 99 | 1014.9 |
| 20260902041310 | 77 | 165 | 0.0 | 0.0 | 0.00 | 0.00 | 0.00 | 99 | 1015.2 |
| 20260902040809 | 77 | 158 | 0.0 | 0.0 | 0.00 | 0.00 | 0.00 | 99 | 1015.0 |
| 20260902040305 | 77 | 165 | 0.0 | 0.0 | 0.00 | 0.00 | 0.00 | 99 | 1014.8 |
| 20260902035803 | 77 | 163 | 0.0 | 0.0 | 0.00 | 0.19 | 0.19 | 99 | 1015.0 |
| 20260902035259 | 77 | 156 | 0.0 | 0.0 | 0.00 | 0.19 | 0.19 | 99 | 1015.5 |
| 20260902034758 | 77 | 162 | 0.0 | 0.0 | 0.00 | 0.19 | 0.19 | 99 | 1015.4 |
| 20260902034253 | 77 | 162 | 0.0 | 0.0 | 0.00 | 0.19 | 0.19 | 99 | 1015.2 |
| 20260902033751 | 77 | 163 | 0.0 | 0.0 | 0.00 | 0.19 | 0.19 | 99 | 1015.3 |
| 20260902033247 | 77 | 156 | 0.0 | 0.0 | 0.00 | 0.19 | 0.19 | 99 | 1015.6 |
| 20260902032745 | 77 | 163 | 0.0 | 0.0 | 0.00 | 0.19 | 0.19 | 99 | 1015.8 |
| 20260902032241 | 77 | 162 | 0.0 | 0.0 | 0.00 | 0.19 | 0.19 | 99 | 1015.6 |
| 20260902031740 | 77 | 162 | 0.0 | 0.0 | 0.00 | 0.19 | 0.19 | 99 | 1015.7 |
| 20260902031236 | 77 | 162 | 0.0 | 0.0 | 0.00 | 0.19 | 0.19 | 99 | 1015.7 |
| 20260902030731 | 77 | 157 | 0.0 | 0.0 | 0.00 | 0.19 | 0.19 | 99 | 1015.4 |
| 20260902030226 | 77 | 159 | 0.0 | 0.0 | 0.00 | 0.19 | 0.19 | 99 | 1015.6 |
| 20260902025725 | 77 | 158 | 0.0 | 0.0 | 0.00 | 0.19 | 0.19 | 99 | 1015.7 |
| 20260902025220 | 77 | 163 | 0.0 | 0.0 | 0.00 | 0.19 | 0.19 | 99 | 1015.7 |
| 20260902024715 | 77 | 160 | 0.0 | 0.0 | 0.00 | 0.19 | 0.19 | 99 | 1015.8 |
| 20260902024210 | 77 | 158 | 0.0 | 0.0 | 0.00 | 0.19 | 0.19 | 99 | 1015.4 |
| 20260902023706 | 77 | 160 | 0.0 | 0.0 | 0.00 | 0.19 | 0.19 | 99 | 1015.5 |
| 20260902023201 | 77 | 160 | 0.0 | 0.0 | 0.00 | 0.19 | 0.19 | 99 | 1015.4 |
| 20260902022701 | 77 | 157 | 0.0 | 0.0 | 0.00 | 0.19 | 0.19 | 99 | 1015.5 |
| 20260902022156 | 77 | 151 | 0.0 | 0.0 | 0.00 | 0.19 | 0.19 | 99 | 1015.4 |
| 20260902021652 | 77 | 156 | 0.0 | 0.0 | 0.00 | 0.19 | 0.19 | 99 | 1015.5 |
| 20260902021146 | 77 | 157 | 0.0 | 0.0 | 0.00 | 0.19 | 0.19 | 99 | 1015.7 |
| 20260902020642 | 77 | 160 | 0.0 | 0.0 | 0.00 | 0.19 | 0.19 | 99 | 1015.4 |
| 20260902020138 | 77 | 159 | 0.0 | 0.0 | 0.00 | 0.19 | 0.19 | 99 | 1015.3 |
| 20260902015633 | 77 | 159 | 0.0 | 0.0 | 0.00 | 0.19 | 0.19 | 99 | 1015.5 |
| 20260902015130 | 77 | 156 | 0.0 | 0.0 | 0.00 | 0.19 | 0.19 | 99 | 1015.3 |
| 20260902014625 | 77 | 159 | 0.0 | 0.0 | 0.00 | 0.19 | 0.19 | 99 | 1015.2 |
| 20260902014120 | 77 | 159 | 0.0 | 0.0 | 0.00 | 0.19 | 0.19 | 99 | 1015.2 |
| 20260902013620 | 78 | 159 | 0.0 | 0.0 | 0.00 | 0.19 | 0.19 | 99 | 1015.2 |
| 20260902013116 | 78 | 159 | 0.0 | 0.0 | 0.00 | 0.19 | 0.19 | 99 | 1015.0 |
| 20260902012611 | 78 | 157 | 0.0 | 0.0 | 0.05 | 0.19 | 0.19 | 99 | 1015.0 |
| 20260902012106 | 78 | 161 | 0.0 | 0.0 | 0.05 | 0.19 | 0.19 | 99 | 1014.9 |
| 20260902011602 | 78 | 156 | 0.0 | 0.0 | 0.00 | 0.18 | 0.18 | 99 | 1014.9 |
| 20260902011101 | 78 | 155 | 0.0 | 0.0 | 0.00 | 0.18 | 0.18 | 99 | 1015.1 |
| 20260902010601 | 78 | 177 | 0.0 | 0.0 | 0.00 | 0.18 | 0.18 | 99 | 1015.0 |
| 20260902010057 | 78 | 177 | 0.0 | 0.0 | 0.07 | 0.18 | 0.18 | 99 | 1015.1 |
| 20260902005554 | 78 | 177 | 0.0 | 0.0 | 0.07 | 0.18 | 0.18 | 99 | 1014.9 |
| 20260902005051 | 78 | 177 | 0.0 | 0.0 | 0.00 | 0.17 | 0.17 | 99 | 1015.0 |
| 20260902004549 | 78 | 178 | 0.0 | 0.0 | 0.05 | 0.17 | 0.17 | 99 | 1015.0 |
| 20260902004045 | 78 | 179 | 0.0 | 0.0 | 0.05 | 0.17 | 0.17 | 99 | 1014.8 |
| 20260902003541 | 78 | 179 | 0.0 | 0.0 | 0.00 | 0.16 | 0.16 | 99 | 1015.0 |
| 20260902003036 | 78 | 179 | 0.0 | 0.0 | 0.00 | 0.16 | 0.16 | 99 | 1014.9 |
| 20260902002532 | 78 | 179 | 0.0 | 0.0 | 0.00 | 0.16 | 0.16 | 99 | 1014.9 |
| 20260902002026 | 78 | 179 | 0.0 | 0.0 | 0.00 | 0.16 | 0.16 | 99 | 1014.9 |
| 20260902001521 | 78 | 180 | 0.0 | 0.0 | 0.07 | 0.16 | 0.16 | 99 | 1014.9 |
| 20260902001016 | 78 | 180 | 0.0 | 0.0 | 0.07 | 0.16 | 0.16 | 99 | 1014.9 |
| 20260902000511 | 78 | 179 | 0.0 | 0.0 | 0.00 | 0.15 | 0.15 | 99 | 1014.8 |
| 20260902000006 | 79 | 180 | 0.0 | 0.0 | 0.00 | 0.15 | 0.15 | 99 | 1015.0 |
| 20260901235501 | 79 | 187 | 0.0 | 0.0 | 0.00 | 0.15 | 0.15 | 99 | 1014.9 |
| 20260901234956 | 79 | 182 | 0.0 | 0.0 | 0.05 | 0.15 | 0.15 | 99 | 1015.1 |
| 20260901234455 | 80 | 239 | 0.0 | 0.0 | 0.05 | 0.15 | 0.15 | 99 | 1015.1 |
| 20260901233950 | 80 | 242 | 0.0 | 0.0 | 0.07 | 0.14 | 0.14 | 99 | 1014.6 |
| 20260901233445 | 80 | 201 | 0.0 | 0.0 | 0.12 | 0.14 | 0.14 | 99 | 1014.8 |
| 20260901232941 | 79 | 154 | 0.0 | 0.0 | 0.05 | 0.13 | 0.13 | 99 | 1014.5 |
| 20260901232436 | 79 | 162 | 0.0 | 0.0 | 0.12 | 0.13 | 0.13 | 99 | 1014.6 |
| 20260901231931 | 79 | 163 | 0.0 | 0.0 | 0.14 | 0.12 | 0.12 | 99 | 1014.4 |
| 20260901231427 | 79 | 159 | 0.0 | 0.0 | 0.07 | 0.11 | 0.11 | 98 | 1014.5 |
| 20260901230924 | 79 | 163 | 0.0 | 0.0 | 0.05 | 0.10 | 0.10 | 98 | 1014.7 |
| 20260901230423 | 79 | 182 | 0.0 | 0.0 | 0.05 | 0.10 | 0.10 | 98 | 1014.8 |
| 20260901225919 | 80 | 127 | 0.0 | 0.0 | 0.00 | 0.09 | 0.09 | 98 | 1014.9 |
| 20260901225419 | 80 | 135 | 0.0 | 0.0 | 0.00 | 0.09 | 0.09 | 98 | 1015.1 |
| 20260901224913 | 80 | 152 | 0.0 | 0.0 | 0.00 | 0.09 | 0.09 | 98 | 1014.9 |
| 20260901224410 | 80 | 149 | 0.0 | 0.0 | 0.00 | 0.09 | 0.09 | 97 | 1014.6 |
| 20260901223906 | 80 | 148 | 0.0 | 0.0 | 0.07 | 0.09 | 0.09 | 97 | 1014.7 |
| 20260901223401 | 80 | 144 | 0.0 | 0.0 | 0.07 | 0.09 | 0.09 | 97 | 1014.8 |
| 20260901222856 | 80 | 164 | 0.0 | 0.0 | 0.00 | 0.08 | 0.08 | 97 | 1014.9 |
| 20260901222353 | 80 | 157 | 0.0 | 0.0 | 0.00 | 0.08 | 0.08 | 97 | 1015.0 |
| 20260901221848 | 80 | 241 | 0.0 | 0.0 | 0.00 | 0.08 | 0.08 | 96 | 1015.0 |
| 20260901221344 | 80 | 256 | 0.0 | 0.0 | 0.00 | 0.08 | 0.08 | 96 | 1014.6 |